| time (UTC) | temp F | wind direction | speed MPH | gust MPH | rain 1hr in | rain 24hr in | rain mn in | humidity % | barometer mb |
| 20260905223506 | 69 | 126 | 0.0 | 1.0 | 0.00 | 0.00 | 0.00 | 63 | 1025.6 |
| 20260905223019 | 69 | 126 | 0.0 | 1.0 | 0.00 | 0.00 | 0.00 | 63 | 1025.7 |
| 20260905222510 | 69 | 95 | 0.0 | 1.0 | 0.00 | 0.00 | 0.00 | 62 | 1025.8 |
| 20260905222016 | 70 | 84 | 0.0 | 1.0 | 0.00 | 0.00 | 0.00 | 62 | 1025.7 |
| 20260905221518 | 70 | 85 | 0.0 | 2.0 | 0.00 | 0.00 | 0.00 | 61 | 1025.7 |
| 20260905221012 | 70 | 101 | 0.0 | 4.0 | 0.00 | 0.00 | 0.00 | 61 | 1025.7 |
| 20260905220515 | 70 | 114 | 2.0 | 4.0 | 0.00 | 0.00 | 0.00 | 61 | 1025.6 |
| 20260905220005 | 70 | 82 | 1.0 | 4.0 | 0.00 | 0.00 | 0.00 | 61 | 1025.6 |
| 20260905215507 | 70 | 94 | 1.0 | 4.0 | 0.00 | 0.00 | 0.00 | 61 | 1025.7 |
| 20260905215002 | 70 | 96 | 1.0 | 3.0 | 0.00 | 0.00 | 0.00 | 61 | 1025.6 |
| 20260905214505 | 71 | 147 | 0.0 | 2.0 | 0.00 | 0.00 | 0.00 | 60 | 1025.6 |
| 20260905214005 | 71 | 95 | 0.0 | 4.0 | 0.00 | 0.00 | 0.00 | 60 | 1025.7 |
| 20260905213505 | 71 | 117 | 2.0 | 4.0 | 0.00 | 0.00 | 0.00 | 60 | 1025.7 |
| 20260905213009 | 71 | 85 | 0.0 | 2.0 | 0.00 | 0.00 | 0.00 | 60 | 1025.8 |
| 20260905212508 | 71 | 87 | 0.0 | 2.0 | 0.00 | 0.00 | 0.00 | 60 | 1025.8 |
| 20260905212008 | 71 | 96 | 0.0 | 3.0 | 0.00 | 0.00 | 0.00 | 59 | 1025.8 |
| 20260905211534 | 71 | 101 | 0.0 | 3.0 | 0.00 | 0.00 | 0.00 | 59 | 1025.8 |
| 20260905211010 | 71 | 90 | 0.0 | 3.0 | 0.00 | 0.00 | 0.00 | 59 | 1025.9 |
| 20260905210512 | 71 | 87 | 1.0 | 2.0 | 0.00 | 0.00 | 0.00 | 60 | 1025.9 |
| 20260905210022 | 71 | 89 | 1.0 | 2.0 | 0.00 | 0.00 | 0.00 | 60 | 1025.9 |
| 20260905205513 | 71 | 79 | 0.0 | 2.0 | 0.00 | 0.00 | 0.00 | 59 | 1026.0 |
| 20260905205012 | 71 | 70 | 0.0 | 1.0 | 0.00 | 0.00 | 0.00 | 58 | 1026.1 |
| 20260905204504 | 72 | 70 | 0.0 | 1.0 | 0.00 | 0.00 | 0.00 | 58 | 1026.0 |
| 20260905204002 | 71 | 94 | 0.0 | 2.0 | 0.00 | 0.00 | 0.00 | 58 | 1026.1 |
| 20260905203505 | 71 | 124 | 0.0 | 2.0 | 0.00 | 0.00 | 0.00 | 59 | 1026.1 |
| 20260905203007 | 71 | 107 | 0.0 | 2.0 | 0.00 | 0.00 | 0.00 | 59 | 1026.1 |
| 20260905202509 | 71 | 81 | 0.0 | 2.0 | 0.00 | 0.00 | 0.00 | 59 | 1026.2 |
| 20260905202006 | 72 | 89 | 0.0 | 1.0 | 0.00 | 0.00 | 0.00 | 59 | 1026.3 |
| 20260905201517 | 72 | 276 | 0.0 | 1.0 | 0.00 | 0.00 | 0.00 | 58 | 1026.2 |
| 20260905201008 | 71 | 276 | 0.0 | 1.0 | 0.00 | 0.00 | 0.00 | 59 | 1026.2 |
| 20260905200508 | 71 | 276 | 0.0 | 1.0 | 0.00 | 0.00 | 0.00 | 59 | 1026.3 |
| 20260905200017 | 71 | 276 | 0.0 | 0.0 | 0.00 | 0.00 | 0.00 | 59 | 1026.3 |
| 20260905195512 | 71 | 276 | 0.0 | 0.0 | 0.00 | 0.00 | 0.00 | 58 | 1026.3 |
| 20260905195016 | 72 | 276 | 0.0 | 0.0 | 0.00 | 0.00 | 0.00 | 58 | 1026.3 |
| 20260905194524 | 72 | 276 | 0.0 | 0.0 | 0.00 | 0.00 | 0.00 | 58 | 1026.3 |
| 20260905194014 | 72 | 276 | 0.0 | 0.0 | 0.00 | 0.00 | 0.00 | 58 | 1026.4 |
| 20260905193514 | 72 | 276 | 0.0 | 1.0 | 0.00 | 0.00 | 0.00 | 58 | 1026.4 |
| 20260905193032 | 73 | 276 | 0.0 | 1.0 | 0.00 | 0.00 | 0.00 | 56 | 1026.3 |
| 20260905192507 | 74 | 265 | 0.0 | 1.0 | 0.00 | 0.00 | 0.00 | 56 | 1026.2 |
| 20260905192003 | 74 | 288 | 0.0 | 1.0 | 0.00 | 0.00 | 0.00 | 55 | 1026.2 |
| 20260905191520 | 74 | 288 | 0.0 | 2.0 | 0.00 | 0.00 | 0.00 | 55 | 1026.2 |
| 20260905191003 | 74 | 283 | 1.0 | 2.0 | 0.00 | 0.00 | 0.00 | 54 | 1026.2 |
| 20260905190507 | 75 | 291 | 1.0 | 2.0 | 0.00 | 0.00 | 0.00 | 54 | 1026.0 |
| 20260905190017 | 74 | 276 | 0.0 | 1.0 | 0.00 | 0.00 | 0.00 | 54 | 1025.9 |
| 20260905185509 | 75 | 273 | 0.0 | 1.0 | 0.00 | 0.00 | 0.00 | 54 | 1025.9 |
| 20260905185011 | 75 | 277 | 0.0 | 1.0 | 0.00 | 0.00 | 0.00 | 53 | 1025.8 |
| 20260905184527 | 75 | 269 | 0.0 | 1.0 | 0.00 | 0.00 | 0.00 | 53 | 1025.8 |
| 20260905184013 | 75 | 268 | 0.0 | 1.0 | 0.00 | 0.00 | 0.00 | 53 | 1025.7 |
| 20260905183515 | 75 | 290 | 0.0 | 1.0 | 0.00 | 0.00 | 0.00 | 53 | 1025.6 |
| 20260905183036 | 75 | 22 | 0.0 | 0.0 | 0.00 | 0.00 | 0.00 | 52 | 1025.7 |
| 20260905182515 | 76 | 26 | 0.0 | 0.0 | 0.00 | 0.00 | 0.00 | 51 | 1025.6 |
| 20260905182015 | 76 | 26 | 0.0 | 0.0 | 0.00 | 0.00 | 0.00 | 50 | 1025.6 |
| 20260905181529 | 77 | 26 | 0.0 | 0.0 | 0.00 | 0.00 | 0.00 | 50 | 1025.6 |
| 20260905181014 | 78 | 26 | 0.0 | 0.0 | 0.00 | 0.00 | 0.00 | 49 | 1025.6 |
| 20260905180503 | 78 | 26 | 0.0 | 0.0 | 0.00 | 0.00 | 0.00 | 48 | 1025.6 |
| 20260905180010 | 79 | 26 | 0.0 | 0.0 | 0.00 | 0.00 | 0.00 | 47 | 1025.7 |
| 20260905175507 | 81 | 26 | 0.0 | 0.0 | 0.00 | 0.00 | 0.00 | 45 | 1025.7 |
| 20260905175010 | 81 | 26 | 0.0 | 0.0 | 0.00 | 0.00 | 0.00 | 44 | 1025.8 |
| 20260905174515 | 82 | 26 | 0.0 | 0.0 | 0.00 | 0.00 | 0.00 | 43 | 1025.8 |
| 20260905174011 | 83 | 26 | 0.0 | 0.0 | 0.00 | 0.00 | 0.00 | 43 | 1025.8 |
| 20260905173512 | 83 | 26 | 0.0 | 0.0 | 0.00 | 0.00 | 0.00 | 43 | 1025.8 |
| 20260905173022 | 83 | 26 | 0.0 | 0.0 | 0.00 | 0.00 | 0.00 | 43 | 1025.8 |
| 20260905172513 | 83 | 26 | 0.0 | 0.0 | 0.00 | 0.00 | 0.00 | 44 | 1025.8 |
| 20260905172017 | 83 | 26 | 0.0 | 0.0 | 0.00 | 0.00 | 0.00 | 43 | 1025.8 |
| 20260905171530 | 83 | 26 | 0.0 | 0.0 | 0.00 | 0.00 | 0.00 | 43 | 1025.9 |
| 20260905171018 | 83 | 26 | 0.0 | 1.0 | 0.00 | 0.00 | 0.00 | 44 | 1025.9 |
| 20260905170516 | 82 | 26 | 0.0 | 1.0 | 0.00 | 0.00 | 0.00 | 44 | 1025.9 |
| 20260905170030 | 83 | 34 | 0.0 | 1.0 | 0.00 | 0.00 | 0.00 | 43 | 1025.9 |
| 20260905165515 | 83 | 34 | 0.0 | 1.0 | 0.00 | 0.00 | 0.00 | 43 | 1025.8 |
| 20260905165018 | 84 | 39 | 0.0 | 0.0 | 0.00 | 0.00 | 0.00 | 43 | 1025.9 |
| 20260905164514 | 83 | 39 | 0.0 | 0.0 | 0.00 | 0.00 | 0.00 | 44 | 1025.9 |
| 20260905164010 | 83 | 39 | 0.0 | 1.0 | 0.00 | 0.00 | 0.00 | 44 | 1025.9 |
| 20260905163509 | 82 | 39 | 0.0 | 1.0 | 0.00 | 0.00 | 0.00 | 44 | 1025.9 |
| 20260905163022 | 82 | 335 | 0.0 | 2.0 | 0.00 | 0.00 | 0.00 | 46 | 1025.9 |
| 20260905162512 | 82 | 335 | 0.0 | 2.0 | 0.00 | 0.00 | 0.00 | 45 | 1025.9 |
| 20260905162013 | 83 | 19 | 0.0 | 1.0 | 0.00 | 0.00 | 0.00 | 44 | 1025.9 |
| 20260905161527 | 83 | 348 | 0.0 | 1.0 | 0.00 | 0.00 | 0.00 | 44 | 1025.9 |
| 20260905161005 | 83 | 63 | 0.0 | 1.0 | 0.00 | 0.00 | 0.00 | 46 | 1026.0 |
| 20260905160506 | 82 | 70 | 0.0 | 1.0 | 0.00 | 0.00 | 0.00 | 46 | 1026.0 |
| 20260905160006 | 81 | 71 | 0.0 | 2.0 | 0.00 | 0.00 | 0.00 | 45 | 1026.0 |
| 20260905155502 | 81 | 346 | 0.0 | 2.0 | 0.00 | 0.00 | 0.00 | 46 | 1026.0 |
| 20260905155004 | 81 | 127 | 0.0 | 3.0 | 0.00 | 0.00 | 0.00 | 46 | 1026.0 |
| 20260905154508 | 82 | 94 | 0.0 | 3.0 | 0.00 | 0.00 | 0.00 | 45 | 1026.0 |
| 20260905154009 | 83 | 319 | 0.0 | 1.0 | 0.00 | 0.00 | 0.00 | 44 | 1026.0 |
| 20260905153505 | 82 | 319 | 0.0 | 2.0 | 0.00 | 0.00 | 0.00 | 45 | 1026.1 |
| 20260905153018 | 82 | 80 | 0.0 | 2.0 | 0.00 | 0.00 | 0.00 | 44 | 1026.1 |
| 20260905152507 | 82 | 302 | 0.0 | 2.0 | 0.00 | 0.00 | 0.00 | 46 | 1026.2 |
| 20260905152011 | 82 | 51 | 0.0 | 3.0 | 0.00 | 0.00 | 0.00 | 45 | 1026.2 |
| 20260905151528 | 81 | 293 | 0.0 | 3.0 | 0.00 | 0.00 | 0.00 | 44 | 1026.2 |
| 20260905151003 | 81 | 35 | 0.0 | 3.0 | 0.00 | 0.00 | 0.00 | 45 | 1026.2 |
| 20260905150507 | 81 | 345 | 1.0 | 5.0 | 0.00 | 0.00 | 0.00 | 44 | 1026.2 |
| 20260905150014 | 81 | 92 | 1.0 | 5.0 | 0.00 | 0.00 | 0.00 | 47 | 1026.2 |
| 20260905145504 | 81 | 132 | 1.0 | 3.0 | 0.00 | 0.00 | 0.00 | 46 | 1026.4 |
| 20260905145004 | 81 | 315 | 0.0 | 2.0 | 0.00 | 0.00 | 0.00 | 44 | 1026.4 |
| 20260905144511 | 82 | 106 | 0.0 | 2.0 | 0.00 | 0.00 | 0.00 | 43 | 1026.4 |
| 20260905144003 | 81 | 33 | 0.0 | 2.0 | 0.00 | 0.00 | 0.00 | 46 | 1026.5 |
| 20260905143503 | 80 | 95 | 0.0 | 2.0 | 0.00 | 0.00 | 0.00 | 46 | 1026.5 |
| 20260905143011 | 80 | 308 | 0.0 | 3.0 | 0.00 | 0.00 | 0.00 | 45 | 1026.6 |
| 20260905142507 | 81 | 349 | 1.0 | 3.0 | 0.00 | 0.00 | 0.00 | 46 | 1026.6 |
| 20260905142008 | 81 | 76 | 0.0 | 4.0 | 0.00 | 0.00 | 0.00 | 46 | 1026.6 |
| 20260905141514 | 80 | 58 | 0.0 | 4.0 | 0.00 | 0.00 | 0.00 | 46 | 1026.7 |
| 20260905141010 | 80 | 105 | 0.0 | 2.0 | 0.00 | 0.00 | 0.00 | 47 | 1026.7 |
| 20260905140510 | 80 | 81 | 0.0 | 3.0 | 0.00 | 0.00 | 0.00 | 48 | 1026.7 |
| 20260905140021 | 80 | 76 | 0.0 | 3.0 | 0.00 | 0.00 | 0.00 | 47 | 1026.8 |
| 20260905135513 | 80 | 77 | 0.0 | 2.0 | 0.00 | 0.00 | 0.00 | 46 | 1026.8 |
| 20260905135003 | 80 | 102 | 0.0 | 5.0 | 0.00 | 0.00 | 0.00 | 46 | 1026.9 |
| 20260905134504 | 80 | 37 | 0.0 | 5.0 | 0.00 | 0.00 | 0.00 | 49 | 1026.9 |
| 20260905134004 | 80 | 293 | 2.0 | 4.0 | 0.00 | 0.00 | 0.00 | 49 | 1026.9 |
| 20260905133503 | 79 | 304 | 1.0 | 4.0 | 0.00 | 0.00 | 0.00 | 47 | 1027.1 |
| 20260905133008 | 79 | 286 | 2.0 | 5.0 | 0.00 | 0.00 | 0.00 | 48 | 1027.2 |
| 20260905132504 | 79 | 351 | 2.0 | 5.0 | 0.00 | 0.00 | 0.00 | 48 | 1027.2 |
| 20260905132007 | 79 | 293 | 0.0 | 3.0 | 0.00 | 0.00 | 0.00 | 46 | 1027.2 |
| 20260905131515 | 79 | 342 | 0.0 | 4.0 | 0.00 | 0.00 | 0.00 | 47 | 1027.2 |
| 20260905131009 | 79 | 319 | 1.0 | 4.0 | 0.00 | 0.00 | 0.00 | 46 | 1027.2 |
| 20260905130508 | 79 | 309 | 2.0 | 6.0 | 0.00 | 0.00 | 0.00 | 46 | 1027.3 |
| 20260905130016 | 79 | 314 | 0.0 | 6.0 | 0.00 | 0.00 | 0.00 | 48 | 1027.4 |
| 20260905125512 | 78 | 309 | 1.0 | 7.0 | 0.00 | 0.00 | 0.00 | 47 | 1027.4 |
| 20260905125011 | 78 | 286 | 3.0 | 7.0 | 0.00 | 0.00 | 0.00 | 47 | 1027.5 |
| 20260905124527 | 78 | 299 | 4.0 | 7.0 | 0.00 | 0.00 | 0.00 | 47 | 1027.5 |
| 20260905124013 | 78 | 288 | 3.0 | 6.0 | 0.00 | 0.00 | 0.00 | 47 | 1027.4 |
| 20260905123515 | 79 | 302 | 3.0 | 6.0 | 0.00 | 0.00 | 0.00 | 45 | 1027.4 |
| 20260905123005 | 78 | 266 | 1.0 | 4.0 | 0.00 | 0.00 | 0.00 | 46 | 1027.4 |
| 20260905122503 | 79 | 289 | 1.0 | 5.0 | 0.00 | 0.00 | 0.00 | 50 | 1027.4 |
| 20260905122004 | 78 | 79 | 0.0 | 5.0 | 0.00 | 0.00 | 0.00 | 49 | 1027.3 |
| 20260905121509 | 78 | 296 | 3.0 | 5.0 | 0.00 | 0.00 | 0.00 | 50 | 1027.4 |
| 20260905121004 | 77 | 283 | 1.0 | 6.0 | 0.00 | 0.00 | 0.00 | 48 | 1027.3 |
| 20260905120508 | 77 | 283 | 3.0 | 6.0 | 0.00 | 0.00 | 0.00 | 51 | 1027.3 |
| 20260905120012 | 77 | 315 | 2.0 | 6.0 | 0.00 | 0.00 | 0.00 | 49 | 1027.3 |
| 20260905115510 | 77 | 323 | 3.0 | 6.0 | 0.00 | 0.00 | 0.00 | 50 | 1027.3 |
| 20260905115011 | 77 | 276 | 1.0 | 7.0 | 0.00 | 0.00 | 0.00 | 48 | 1027.4 |
| 20260905114518 | 78 | 288 | 2.0 | 7.0 | 0.00 | 0.00 | 0.00 | 49 | 1027.4 |
| 20260905114011 | 79 | 285 | 3.0 | 5.0 | 0.00 | 0.00 | 0.00 | 47 | 1027.4 |
| 20260905113512 | 80 | 221 | 1.0 | 2.0 | 0.00 | 0.00 | 0.00 | 48 | 1027.3 |
| 20260905113023 | 78 | 84 | 0.0 | 2.0 | 0.00 | 0.00 | 0.00 | 48 | 1027.4 |
| 20260905112514 | 77 | 259 | 1.0 | 4.0 | 0.00 | 0.00 | 0.00 | 49 | 1027.3 |
| 20260905112015 | 78 | 318 | 1.0 | 4.0 | 0.00 | 0.00 | 0.00 | 46 | 1027.4 |
| 20260905111534 | 78 | 274 | 0.0 | 2.0 | 0.00 | 0.00 | 0.00 | 48 | 1027.3 |
| 20260905111007 | 78 | 69 | 1.0 | 3.0 | 0.00 | 0.00 | 0.00 | 50 | 1027.3 |
| 20260905110506 | 77 | 92 | 0.0 | 3.0 | 0.00 | 0.00 | 0.00 | 49 | 1027.4 |
| 20260905110009 | 76 | 32 | 0.0 | 3.0 | 0.00 | 0.00 | 0.00 | 50 | 1027.4 |
| 20260905105508 | 76 | 70 | 1.0 | 3.0 | 0.00 | 0.00 | 0.00 | 49 | 1027.4 |
| 20260905105008 | 76 | 16 | 0.0 | 3.0 | 0.00 | 0.00 | 0.00 | 50 | 1027.5 |
| 20260905104513 | 76 | 63 | 1.0 | 3.0 | 0.00 | 0.00 | 0.00 | 48 | 1027.4 |
| 20260905104016 | 76 | 75 | 1.0 | 4.0 | 0.00 | 0.00 | 0.00 | 49 | 1027.5 |
| 20260905103511 | 76 | 74 | 1.0 | 4.0 | 0.00 | 0.00 | 0.00 | 48 | 1027.5 |
| 20260905103020 | 76 | 87 | 1.0 | 3.0 | 0.00 | 0.00 | 0.00 | 49 | 1027.5 |
| 20260905102514 | 76 | 64 | 0.0 | 3.0 | 0.00 | 0.00 | 0.00 | 48 | 1027.5 |
| 20260905102014 | 76 | 90 | 1.0 | 3.0 | 0.00 | 0.00 | 0.00 | 48 | 1027.4 |
| 20260905101527 | 76 | 91 | 0.0 | 3.0 | 0.00 | 0.00 | 0.00 | 48 | 1027.5 |
| 20260905101016 | 76 | 65 | 1.0 | 3.0 | 0.00 | 0.00 | 0.00 | 48 | 1027.4 |
| 20260905100516 | 76 | 34 | 1.0 | 3.0 | 0.00 | 0.00 | 0.00 | 46 | 1027.4 |
| 20260905100035 | 76 | 28 | 1.0 | 3.0 | 0.00 | 0.00 | 0.00 | 45 | 1027.4 |
| 20260905095504 | 75 | 81 | 0.0 | 3.0 | 0.00 | 0.00 | 0.00 | 46 | 1027.4 |
| 20260905095006 | 74 | 310 | 0.0 | 3.0 | 0.00 | 0.00 | 0.00 | 45 | 1027.4 |
| 20260905094511 | 74 | 281 | 1.0 | 4.0 | 0.00 | 0.00 | 0.00 | 43 | 1027.4 |
| 20260905094009 | 75 | 14 | 1.0 | 4.0 | 0.00 | 0.00 | 0.00 | 44 | 1027.3 |
| 20260905093510 | 75 | 216 | 0.0 | 2.0 | 0.00 | 0.00 | 0.00 | 47 | 1027.3 |
| 20260905093018 | 74 | 72 | 0.0 | 2.0 | 0.00 | 0.00 | 0.00 | 44 | 1027.2 |
| 20260905092512 | 74 | 107 | 1.0 | 3.0 | 0.00 | 0.00 | 0.00 | 49 | 1027.2 |
| 20260905092014 | 74 | 93 | 1.0 | 3.0 | 0.00 | 0.00 | 0.00 | 50 | 1027.2 |
| 20260905091530 | 73 | 68 | 0.0 | 2.0 | 0.00 | 0.00 | 0.00 | 52 | 1027.3 |
| 20260905091013 | 73 | 350 | 0.0 | 2.0 | 0.00 | 0.00 | 0.00 | 52 | 1027.3 |
| 20260905090515 | 72 | 62 | 0.0 | 2.0 | 0.00 | 0.00 | 0.00 | 55 | 1027.3 |
| 20260905090029 | 72 | 77 | 0.0 | 2.0 | 0.00 | 0.00 | 0.00 | 60 | 1027.2 |
| 20260905085516 | 72 | 99 | 1.0 | 2.0 | 0.00 | 0.00 | 0.00 | 62 | 1027.1 |
| 20260905085016 | 72 | 72 | 0.0 | 2.0 | 0.00 | 0.00 | 0.00 | 58 | 1027.1 |
| 20260905084528 | 73 | 75 | 0.0 | 1.0 | 0.00 | 0.00 | 0.00 | 60 | 1027.0 |
| 20260905084017 | 74 | 72 | 0.0 | 1.0 | 0.00 | 0.00 | 0.00 | 60 | 1027.0 |
| 20260905083506 | 74 | 73 | 0.0 | 1.0 | 0.00 | 0.00 | 0.00 | 55 | 1026.9 |
| 20260905083014 | 74 | 68 | 0.0 | 2.0 | 0.00 | 0.00 | 0.00 | 55 | 1026.9 |
| 20260905082511 | 74 | 16 | 0.0 | 3.0 | 0.00 | 0.00 | 0.00 | 52 | 1026.9 |
| 20260905082009 | 73 | 103 | 1.0 | 3.0 | 0.00 | 0.00 | 0.00 | 51 | 1026.8 |
| 20260905081519 | 72 | 101 | 1.0 | 2.0 | 0.00 | 0.00 | 0.00 | 52 | 1026.7 |
| 20260905081011 | 72 | 89 | 0.0 | 2.0 | 0.00 | 0.00 | 0.00 | 61 | 1026.5 |
| 20260905080513 | 73 | 91 | 0.0 | 2.0 | 0.00 | 0.00 | 0.00 | 61 | 1026.6 |
| 20260905080027 | 73 | 101 | 1.0 | 2.0 | 0.00 | 0.00 | 0.00 | 55 | 1026.5 |
| 20260905075515 | 73 | 102 | 0.0 | 1.0 | 0.00 | 0.00 | 0.00 | 56 | 1026.4 |
| 20260905075015 | 73 | 117 | 0.0 | 1.0 | 0.00 | 0.00 | 0.00 | 54 | 1026.4 |
| 20260905074531 | 73 | 93 | 1.0 | 1.0 | 0.00 | 0.00 | 0.00 | 53 | 1026.4 |
| 20260905074017 | 73 | 113 | 0.0 | 2.0 | 0.00 | 0.00 | 0.00 | 50 | 1026.4 |
| 20260905073517 | 73 | 116 | 0.0 | 2.0 | 0.00 | 0.00 | 0.00 | 52 | 1026.3 |
| 20260905073032 | 72 | 98 | 0.0 | 2.0 | 0.00 | 0.00 | 0.00 | 52 | 1026.3 |
| 20260905072518 | 72 | 98 | 0.0 | 1.0 | 0.00 | 0.00 | 0.00 | 53 | 1026.2 |
| 20260905072023 | 71 | 86 | 0.0 | 2.0 | 0.00 | 0.00 | 0.00 | 54 | 1026.2 |
| 20260905071516 | 70 | 82 | 0.0 | 2.0 | 0.00 | 0.00 | 0.00 | 55 | 1026.2 |
| 20260905071012 | 70 | 100 | 0.0 | 2.0 | 0.00 | 0.00 | 0.00 | 54 | 1026.2 |
| 20260905070512 | 70 | 88 | 0.0 | 2.0 | 0.00 | 0.00 | 0.00 | 55 | 1026.1 |
| 20260905070023 | 69 | 94 | 0.0 | 2.0 | 0.00 | 0.00 | 0.00 | 54 | 1026.1 |
| 20260905065514 | 69 | 93 | 0.0 | 2.0 | 0.00 | 0.00 | 0.00 | 56 | 1026.0 |
| 20260905065013 | 68 | 99 | 0.0 | 2.0 | 0.00 | 0.00 | 0.00 | 57 | 1026.0 |
| 20260905064526 | 68 | 108 | 0.0 | 2.0 | 0.00 | 0.00 | 0.00 | 56 | 1025.9 |
| 20260905064015 | 67 | 152 | 0.0 | 2.0 | 0.00 | 0.00 | 0.00 | 57 | 1025.9 |
| 20260905063516 | 67 | 111 | 0.0 | 2.0 | 0.00 | 0.00 | 0.00 | 56 | 1025.8 |
| 20260905063030 | 67 | 91 | 0.0 | 2.0 | 0.00 | 0.00 | 0.00 | 56 | 1025.8 |
| 20260905062516 | 69 | 98 | 0.0 | 1.0 | 0.00 | 0.00 | 0.00 | 56 | 1025.8 |
| 20260905062018 | 68 | 97 | 0.0 | 1.0 | 0.00 | 0.00 | 0.00 | 55 | 1025.9 |
| 20260905061538 | 68 | 96 | 0.0 | 1.0 | 0.00 | 0.00 | 0.00 | 57 | 1025.9 |
| 20260905061015 | 68 | 96 | 0.0 | 1.0 | 0.00 | 0.00 | 0.00 | 56 | 1025.8 |
| 20260905060516 | 67 | 97 | 0.0 | 1.0 | 0.00 | 0.00 | 0.00 | 55 | 1025.7 |
| 20260905060033 | 67 | 105 | 0.0 | 2.0 | 0.00 | 0.00 | 0.00 | 56 | 1025.7 |
| 20260905055513 | 66 | 133 | 0.0 | 2.0 | 0.00 | 0.00 | 0.00 | 57 | 1025.5 |
| 20260905055013 | 66 | 94 | 0.0 | 1.0 | 0.00 | 0.00 | 0.00 | 58 | 1025.5 |
| 20260905054530 | 65 | 76 | 0.0 | 1.0 | 0.00 | 0.00 | 0.00 | 57 | 1025.4 |
| 20260905054015 | 65 | 141 | 0.0 | 1.0 | 0.00 | 0.00 | 0.00 | 58 | 1025.3 |
| 20260905053518 | 64 | 91 | 0.0 | 1.0 | 0.00 | 0.00 | 0.00 | 59 | 1025.3 |
| 20260905053028 | 64 | 129 | 0.0 | 1.0 | 0.00 | 0.00 | 0.00 | 59 | 1025.2 |
| 20260905052515 | 64 | 111 | 0.0 | 1.0 | 0.00 | 0.00 | 0.00 | 59 | 1025.2 |
| 20260905052018 | 64 | 105 | 0.0 | 1.0 | 0.00 | 0.00 | 0.00 | 59 | 1025.2 |
| 20260905051532 | 64 | 108 | 0.0 | 1.0 | 0.00 | 0.00 | 0.00 | 59 | 1025.2 |
| 20260905051018 | 64 | 89 | 0.0 | 2.0 | 0.00 | 0.00 | 0.00 | 59 | 1025.1 |
| 20260905050503 | 64 | 127 | 0.0 | 2.0 | 0.00 | 0.00 | 0.00 | 59 | 1025.0 |
| 20260905050002 | 64 | 94 | 0.0 | 2.0 | 0.00 | 0.00 | 0.00 | 59 | 1025.0 |
| 20260905045502 | 64 | 112 | 0.0 | 1.0 | 0.00 | 0.00 | 0.00 | 60 | 1024.9 |
| 20260905045003 | 63 | 104 | 0.0 | 1.0 | 0.00 | 0.00 | 0.00 | 60 | 1024.9 |
| 20260905044504 | 63 | 80 | 0.0 | 2.0 | 0.00 | 0.00 | 0.00 | 60 | 1024.9 |
| 20260905044002 | 63 | 74 | 0.0 | 2.0 | 0.00 | 0.00 | 0.00 | 60 | 1025.0 |
| 20260905043502 | 63 | 110 | 0.0 | 2.0 | 0.00 | 0.00 | 0.00 | 60 | 1025.0 |
| 20260905043003 | 63 | 80 | 1.0 | 2.0 | 0.00 | 0.00 | 0.00 | 60 | 1025.0 |
| 20260905042502 | 63 | 101 | 0.0 | 1.0 | 0.00 | 0.00 | 0.00 | 61 | 1025.0 |
| 20260905042002 | 63 | 107 | 0.0 | 2.0 | 0.00 | 0.00 | 0.00 | 62 | 1025.0 |
| 20260905041504 | 63 | 108 | 0.0 | 2.0 | 0.00 | 0.00 | 0.00 | 62 | 1025.0 |
| 20260905041002 | 62 | 110 | 0.0 | 1.0 | 0.00 | 0.00 | 0.00 | 63 | 1025.0 |
| 20260905040502 | 62 | 103 | 0.0 | 1.0 | 0.00 | 0.00 | 0.00 | 65 | 1025.0 |
| 20260905040004 | 61 | 94 | 0.0 | 1.0 | 0.00 | 0.00 | 0.00 | 66 | 1025.0 |
| 20260905035506 | 61 | 87 | 0.0 | 1.0 | 0.00 | 0.00 | 0.00 | 66 | 1025.0 |
| 20260905035003 | 61 | 88 | 0.0 | 1.0 | 0.00 | 0.00 | 0.00 | 66 | 1025.0 |
| 20260905034503 | 61 | 88 | 0.0 | 1.0 | 0.00 | 0.00 | 0.00 | 68 | 1025.0 |
| 20260905034003 | 60 | 103 | 0.0 | 1.0 | 0.00 | 0.00 | 0.00 | 68 | 1025.0 |
| 20260905033503 | 60 | 103 | 0.0 | 0.0 | 0.00 | 0.00 | 0.00 | 68 | 1025.0 |
| 20260905033005 | 60 | 103 | 0.0 | 0.0 | 0.00 | 0.00 | 0.00 | 69 | 1024.9 |
| 20260905032503 | 60 | 103 | 0.0 | 0.0 | 0.00 | 0.00 | 0.00 | 69 | 1024.9 |
| 20260905032005 | 60 | 103 | 0.0 | 0.0 | 0.00 | 0.00 | 0.00 | 68 | 1024.9 |
| 20260905031504 | 60 | 103 | 0.0 | 0.0 | 0.00 | 0.00 | 0.00 | 68 | 1024.9 |
| 20260905031001 | 61 | 103 | 0.0 | 1.0 | 0.00 | 0.00 | 0.00 | 66 | 1024.9 |
| 20260905030502 | 62 | 103 | 0.0 | 1.0 | 0.00 | 0.00 | 0.00 | 64 | 1024.9 |
| 20260905030007 | 63 | 103 | 0.0 | 0.0 | 0.00 | 0.00 | 0.00 | 62 | 1024.8 |
| 20260905025502 | 64 | 124 | 0.0 | 1.0 | 0.00 | 0.00 | 0.00 | 60 | 1024.9 |
| 20260905025005 | 65 | 124 | 0.0 | 1.0 | 0.00 | 0.00 | 0.00 | 59 | 1024.8 |
| 20260905024504 | 65 | 124 | 0.0 | 4.0 | 0.00 | 0.00 | 0.00 | 59 | 1024.7 |
| 20260905024003 | 66 | 86 | 1.0 | 4.0 | 0.00 | 0.00 | 0.00 | 58 | 1024.6 |
| 20260905023504 | 65 | 81 | 1.0 | 3.0 | 0.00 | 0.00 | 0.00 | 59 | 1024.6 |
| 20260905023003 | 65 | 96 | 1.0 | 3.0 | 0.00 | 0.00 | 0.00 | 59 | 1024.5 |
| 20260905022506 | 65 | 97 | 1.0 | 3.0 | 0.00 | 0.00 | 0.00 | 60 | 1024.5 |
| 20260905022004 | 64 | 119 | 0.0 | 1.0 | 0.00 | 0.00 | 0.00 | 60 | 1024.5 |
| 20260905021503 | 65 | 96 | 0.0 | 1.0 | 0.00 | 0.00 | 0.00 | 60 | 1024.4 |
| 20260905021003 | 64 | 102 | 0.0 | 1.0 | 0.00 | 0.00 | 0.00 | 60 | 1024.4 |
| 20260905020502 | 64 | 103 | 0.0 | 1.0 | 0.00 | 0.00 | 0.00 | 60 | 1024.4 |
| 20260905020003 | 64 | 56 | 0.0 | 1.0 | 0.00 | 0.00 | 0.00 | 61 | 1024.5 |
| 20260905015504 | 64 | 44 | 0.0 | 1.0 | 0.00 | 0.00 | 0.00 | 60 | 1024.5 |
| 20260905015003 | 64 | 44 | 0.0 | 1.0 | 0.00 | 0.00 | 0.00 | 60 | 1024.5 |
| 20260905014504 | 64 | 44 | 0.0 | 1.0 | 0.00 | 0.00 | 0.00 | 60 | 1024.5 |
| 20260905014003 | 64 | 44 | 0.0 | 0.0 | 0.00 | 0.00 | 0.00 | 61 | 1024.5 |
| 20260905013502 | 64 | 44 | 0.0 | 1.0 | 0.00 | 0.00 | 0.00 | 60 | 1024.5 |
| 20260905013005 | 64 | 44 | 0.0 | 1.0 | 0.00 | 0.00 | 0.00 | 60 | 1024.6 |
| 20260905012503 | 64 | 44 | 0.0 | 1.0 | 0.00 | 0.00 | 0.00 | 60 | 1024.6 |
| 20260905012004 | 64 | 41 | 0.0 | 1.0 | 0.00 | 0.00 | 0.00 | 61 | 1024.6 |
| 20260905011502 | 63 | 26 | 0.0 | 1.0 | 0.00 | 0.00 | 0.00 | 61 | 1024.7 |
| 20260905011004 | 63 | 124 | 0.0 | 0.0 | 0.00 | 0.00 | 0.00 | 61 | 1024.8 |
| 20260905010504 | 63 | 124 | 0.0 | 0.0 | 0.00 | 0.00 | 0.00 | 62 | 1024.8 |
| 20260905010002 | 63 | 124 | 0.0 | 0.0 | 0.00 | 0.00 | 0.00 | 63 | 1024.8 |
| 20260905005503 | 62 | 124 | 0.0 | 0.0 | 0.00 | 0.00 | 0.00 | 63 | 1024.8 |
| 20260905005004 | 62 | 124 | 0.0 | 0.0 | 0.00 | 0.00 | 0.00 | 64 | 1024.8 |
| 20260905004504 | 63 | 124 | 0.0 | 0.0 | 0.00 | 0.00 | 0.00 | 63 | 1024.9 |
| 20260905004005 | 63 | 124 | 0.0 | 0.0 | 0.00 | 0.00 | 0.00 | 62 | 1024.9 |
| 20260905003502 | 63 | 124 | 0.0 | 0.0 | 0.00 | 0.00 | 0.00 | 62 | 1024.9 |
| 20260905003004 | 64 | 124 | 0.0 | 0.0 | 0.00 | 0.00 | 0.00 | 61 | 1024.9 |
| 20260905002503 | 64 | 124 | 0.0 | 0.0 | 0.00 | 0.00 | 0.00 | 60 | 1024.9 |
| 20260905002003 | 65 | 124 | 0.0 | 1.0 | 0.00 | 0.00 | 0.00 | 59 | 1025.0 |
| 20260905001506 | 65 | 124 | 0.0 | 1.0 | 0.00 | 0.00 | 0.00 | 58 | 1024.9 |
| 20260905001003 | 66 | 124 | 0.0 | 1.0 | 0.00 | 0.00 | 0.00 | 56 | 1025.0 |
| 20260905000504 | 68 | 124 | 0.0 | 1.0 | 0.00 | 0.00 | 0.00 | 55 | 1025.0 |
| 20260905000003 | 68 | 127 | 0.0 | 1.0 | 0.00 | 0.00 | 0.00 | 53 | 1025.0 |
| 20260904235504 | 68 | 128 | 0.0 | 1.0 | 0.00 | 0.00 | 0.00 | 52 | 1024.9 |
| 20260904235004 | 68 | 128 | 0.0 | 1.0 | 0.00 | 0.00 | 0.00 | 52 | 1024.8 |
| 20260904234504 | 69 | 141 | 0.0 | 1.0 | 0.00 | 0.00 | 0.00 | 52 | 1024.9 |
| 20260904234009 | 68 | 121 | 0.0 | 1.0 | 0.00 | 0.00 | 0.00 | 52 | 1024.8 |
| 20260904233503 | 69 | 121 | 0.0 | 1.0 | 0.00 | 0.00 | 0.00 | 51 | 1024.8 |
| 20260904233004 | 69 | 75 | 0.0 | 1.0 | 0.00 | 0.00 | 0.00 | 51 | 1024.8 |
| 20260904232504 | 69 | 75 | 0.0 | 1.0 | 0.00 | 0.00 | 0.00 | 51 | 1024.8 |
| 20260904232004 | 69 | 103 | 0.0 | 1.0 | 0.00 | 0.00 | 0.00 | 51 | 1024.8 |
| 20260904231505 | 69 | 103 | 0.0 | 0.0 | 0.00 | 0.00 | 0.00 | 51 | 1024.7 |
| 20260904231006 | 69 | 99 | 0.0 | 1.0 | 0.00 | 0.00 | 0.00 | 51 | 1024.7 |
| 20260904230504 | 69 | 100 | 0.0 | 1.0 | 0.00 | 0.00 | 0.00 | 50 | 1024.8 |
| 20260904230008 | 69 | 99 | 0.0 | 1.0 | 0.00 | 0.00 | 0.00 | 50 | 1024.8 |
| 20260904225505 | 69 | 99 | 0.0 | 1.0 | 0.00 | 0.00 | 0.00 | 50 | 1024.8 |
| 20260904225005 | 69 | 99 | 0.0 | 1.0 | 0.00 | 0.00 | 0.00 | 49 | 1024.7 |
| 20260904224507 | 69 | 98 | 0.0 | 1.0 | 0.00 | 0.00 | 0.00 | 50 | 1024.7 |
| 20260904224005 | 69 | 136 | 0.0 | 0.0 | 0.00 | 0.00 | 0.00 | 50 | 1024.7 |